Regional Weather Roundup
Issued by NWS

Home | Current Version | Previous Version | Text Only | Print | Product List | Glossary On
Versions: 1 2 3 4 5 6 7 8 9 10 11 12 13 14 15 16 17 18 19 20 21 22 23 24 25 26 27 28 29 30 31 32 33 34 35 36 37 38 39 40 41 42 43 44 45 46 47 48 49 50
000
ASUS46 KSTO 130815
RWRCA

NORTHERN AND CENTRAL CA REGIONAL WEATHER ROUNDUP
NATIONAL WEATHER SERVICE SACRAMENTO CA
1200 AM PST WED DEC 13 2017

NOTE: FAIR INDICATES FEW OR NO CLOUDS BELOW 12,000 FEET WITH NO
SIGNIFICANT WEATHER AND/OR OBSTRUCTIONS TO VISIBILITY.

CAZ001-003-130900-
NORTHWEST AREA

CITY           SKY/WX    TMP DP  RH WIND       PRES   REMARKS
CRESCENT CITY  CLOUDY    46  39  76 SE7       30.24F
UKIAH          CLEAR     34  30  85 CALM      30.22F
$$

CAZ006-505>513-130900-
BAY AREA

CITY           SKY/WX    TMP DP  RH WIND       PRES   REMARKS
SANTA ROSA     CLEAR     35  35 100 CALM      30.19F FOG
SAN RAFAEL     N/A       44  MM  MM MISG
NAPA           CLEAR     38  35  89 N3        30.20S
CONCORD        CLEAR     40  34  79 SE3       30.21R
OAKLAND CITY   N/A      MM  MM  MM MISG
OAKLAND        PTCLDY    40  39  97 CALM      30.19S
SAN FRAN CITY  N/A       52  MM  56 MISG
SAN FRAN ARPT  CLEAR     48  40  73 SE3       30.19S
LIVERMORE      CLEAR     37  26  64 CALM      30.20R
HAYWARD        CLEAR     44  27  51 E6        30.19S
REDWOOD CITY   N/A       38  MM  81 MISG
MOFFETT ARPT   CLEAR     42  32  67 CALM      30.20S
SAN JOSE ARPT  PTCLDY    44  35  70 CALM      30.20R
$$
CAZ034-037-514>518-130900-
CENTRAL COAST

CITY           SKY/WX    TMP DP  RH WIND       PRES   REMARKS
WATSONVILLE    CLEAR     43  33  68 CALM      30.17
SALINAS        CLEAR     45  25  45 E6        30.16S
MONTEREY       CLEAR     43  27  53 E6        30.15S
SAN LUIS OBISP CLEAR     53   9  17 E5        30.07F
SANTA MARIA    CLEAR     41  23  48 SE3       30.08F
$$
CAZ015-016-130900-
NORTHERN SACRAMENTO VALLEY

CITY           SKY/WX    TMP DP  RH WIND       PRES   REMARKS
REDDING        CLEAR     35  28  75 CALM      30.17F
RED BLUFF      CLEAR     33  28  81 CALM      30.19S
OROVILLE       CLEAR     41  38  89 E6        30.21S
$$
CAZ016>018-130900-
SOUTHERN SACRAMENTO VALLEY

CITY           SKY/WX    TMP DP  RH WIND       PRES   REMARKS
AUBURN         CLEAR     45  37  76 E6        30.20S
BEALE AFB      CLEAR     38  33  84 NE3       30.19S
LINCOLN        FAIR      32  32 100 E3        30.20R
MARYSVILLE     CLEAR     37  32  82 E3        30.21S
SAC INTL ARPT  CLEAR     34  32  92 CALM      30.20S
MATHER AIRPORT NOT AVBL
DOWNTOWN SAC   N/A       40  MM  MM MISG
SAC EXEC ARPT  CLEAR     36  36 100 SE3       30.21S
VACAVILLE      CLEAR     34  32  92 CALM      30.21S
TRAVIS AFB     CLEAR     33  32  96 S6        30.18S WCI  28
$$
CAZ019>021-130900-
SAN JOAQUIN VALLEY

CITY           SKY/WX    TMP DP  RH WIND       PRES   REMARKS
STOCKTON       CLEAR     35  34  96 CALM      30.20S FOG
MODESTO        CLEAR     36  35  96 SE3       30.20S FOG
MERCED         CLEAR     38  33  82 SW3       30.20S HAZE
LEMOORE        CLEAR     36  23  59 W5        30.21F WCI  32
FRESNO         CLEAR     39  34  82 E3        30.21F HAZE
HANFORD        CLEAR     33  32  96 SE3       30.22S FOG
PORTERVILLE    CLEAR     38  32  79 CALM      30.21F HAZE
BAKERSFIELD    CLOUDY    38  29  70 CALM      30.19F HAZE
$$
CAZ011-012-071-130900-
NORTHERN MOUNTAINS

CITY           SKY/WX    TMP DP  RH WIND       PRES   REMARKS
YREKA          CLEAR     20  17  88 N5        30.38F WCI  13
MOUNT SHASTA   CLEAR     28  20  71 CALM      30.31F HAZE
ALTURAS        PTCLDY    17  14  88 N3        30.35F FOG
$$
CAZ011-012-071-130900-
SIERRA NEVADA MTNS

CITY           SKY/WX    TMP DP  RH WIND       PRES   REMARKS
BLUE CANYON    CLEAR     60 -24   3 NE8       30.30S
TRUCKEE        CLEAR     19  18  93 CALM      30.42R
TAHOE VLY ARPT CLOUDY    22  18  85 S5        30.40S WCI  16
MAMMOTH LAKES  FAIR      17   1  51 CALM      30.42F
$$




USA.gov is the U.S. government's official web portal to all federal, state and local government web resources and services.